QPF
0.01 0.02 0.02 0.01 0.01 0.02 0.02 0.03 0.02 0.02 0.01 0.01 0.01 0.01 0.01 0.01 0.00 0.00 0.01 0.01 0.01 0.02 0.04 0.04 0.04 0.02 0.02 0.02 0.02 0.02 0.02 0.02 0.01 0.02 0.03 0.03 0.01 0.02 0.02 0.03 0.03 0.03 0.02
0.01 0.01 0.01 0.00 0.01 0.01 0.01 0.02 0.02 0.02 0.01 0.01 0.01 0.01 0.01 0.01 0.00 0.01 0.01 0.01 0.01 0.01 0.03 0.04 0.05 0.04 0.02 0.02 0.02 0.03 0.02 0.02 0.02 0.01 0.02 0.05 0.05 0.04 0.03 0.03 0.02 0.02 0.01
0.01 0.00 0.00 0.00 0.00 0.00 0.01 0.01 0.01 0.01 0.01 0.01 0.01 0.01 0.00 0.01 0.01 0.01 0.01 0.01 0.01 0.01 0.02 0.04 0.06 0.05 0.03 0.02 0.02 0.02 0.01 0.01 0.01 0.01 0.00 0.02 0.05 0.05 0.04 0.03 0.02 0.02 0.01
0.00 0.00 0.00 0.00 0.00 0.00 0.01 0.01 0.01 0.01 0.01 0.01 0.01 0.01 0.00 0.01 0.01 0.01 0.01 0.01 0.01 0.01 0.01 0.02 0.04 0.04 0.02 0.01 0.01 0.02 0.02 0.01 0.01 0.01 0.01 0.01 0.01 0.03 0.04 0.03 0.02 0.02 0.02
0.00 0.00 0.00 0.01 0.00 0.00 0.01 0.01 0.01 0.01 0.01 0.01 0.01 0.02 0.01 0.01 0.01 0.01 0.01 0.01 0.01 0.01 0.02 0.02 0.02 0.01 0.01 0.01 0.01 0.01 0.02 0.02 0.01 0.01 0.02 0.02 0.02 0.02 0.02 0.03 0.03 0.02 0.02
0.00 0.00 0.01 0.01 0.01 0.01 0.02 0.01 0.01 0.01 0.01 0.01 0.01 0.01 0.01 0.01 0.02 0.01 0.01 0.01 0.01 0.01 0.01 0.01 0.01 0.01 0.01 0.02 0.02 0.02 0.03 0.02 0.02 0.02 0.02 0.01 0.03 0.05 0.05 0.04 0.04 0.05 0.05
0.00 0.00 0.00 0.00 0.01 0.01 0.02 0.02 0.01 0.01 0.01 0.01 0.01 0.01 0.02 0.03 0.03 0.03 0.02 0.01 0.01 0.01 0.02 0.03 0.03 0.02 0.02 0.02 0.02 0.03 0.02 0.03 0.03 0.03 0.03 0.02 0.03 0.05 0.06 0.07 0.06 0.06 0.07
0.00 0.00 0.00 0.01 0.01 0.01 0.01 0.02 0.02 0.01 0.01 0.01 0.01 0.02 0.02 0.03 0.03 0.03 0.03 0.03 0.03 0.03 0.03 0.03 0.03 0.02 0.02 0.03 0.02 0.03 0.03 0.03 0.03 0.02 0.04 0.05 0.04 0.04 0.03 0.04 0.06 0.08 0.09
0.00 0.00 0.01 0.01 0.01 0.01 0.02 0.02 0.03 0.02 0.02 0.02 0.02 0.02 0.03 0.04 0.04 0.05 0.05 0.04 0.03 0.02 0.03 0.04 0.04 0.02 0.03 0.03 0.02 0.02 0.02 0.03 0.04 0.05 0.06 0.05 0.03 0.02 0.03 0.03 0.05 0.08 0.09
0.00 0.00 0.01 0.01 0.01 0.01 0.02 0.04 0.04 0.03 0.02 0.02 0.01 0.01 0.02 0.03 0.03 0.03 0.04 0.04 0.03 0.02 0.04 0.06 0.05 0.04 0.04 0.04 0.02 0.02 0.02 0.03 0.03 0.03 0.03 0.03 0.03 0.03 0.03 0.03 0.04 0.05 0.05
0.00 0.00 0.01 0.01 0.01 0.01 0.02 0.03 0.03 0.02 0.02 0.02 0.01 0.00 0.01 0.01 0.02 0.04 0.08 0.08 0.06 0.04 0.04 0.05 0.05 0.05 0.05 0.04 0.04 0.03 0.03 0.03 0.02 0.02 0.02 0.02 0.04 0.04 0.03 0.04 0.04 0.04 0.03
0.00 0.00 0.01 0.01 0.01 0.01 0.02 0.02 0.02 0.02 0.02 0.01 0.01 0.00 0.00 0.01 0.02 0.04 0.06 0.04 0.04 0.04 0.04 0.04 0.04 0.03 0.03 0.03 0.02 0.01 0.01 0.01 0.01 0.01 0.02 0.02 0.03 0.03 0.03 0.04 0.04 0.04 0.03
0.00 0.00 0.01 0.01 0.01 0.01 0.01 0.01 0.01 0.02 0.03 0.02 0.01 0.01 0.01 0.01 0.02 0.03 0.03 0.02 0.03 0.04 0.04 0.04 0.03 0.02 0.02 0.02 0.01 0.01 0.01 0.01 0.01 0.01 0.02 0.02 0.02 0.02 0.02 0.03 0.03 0.03 0.03
0.00 0.01 0.02 0.03 0.02 0.01 0.01 0.01 0.01 0.01 0.01 0.02 0.02 0.01 0.01 0.01 0.01 0.02 0.03 0.03 0.03 0.04 0.03 0.04 0.03 0.02 0.01 0.01 0.02 0.02 0.01 0.01 0.01 0.01 0.02 0.02 0.02 0.02 0.02 0.02 0.02 0.03 0.03
0.01 0.02 0.02 0.02 0.03 0.02 0.00 0.00 0.00 0.00 0.01 0.02 0.02 0.02 0.02 0.03 0.03 0.02 0.04 0.04 0.03 0.02 0.02 0.03 0.03 0.02 0.01 0.01 0.03 0.03 0.03 0.02 0.01 0.01 0.01 0.02 0.03 0.03 0.03 0.03 0.03 0.04 0.04
0.02 0.02 0.02 0.01 0.01 0.01 0.01 0.01 0.01 0.02 0.02 0.02 0.02 0.02 0.03 0.03 0.03 0.03 0.04 0.03 0.02 0.02 0.03 0.03 0.02 0.02 0.02 0.02 0.03 0.03 0.03 0.02 0.02 0.02 0.02 0.03 0.04 0.04 0.03 0.03 0.03 0.04 0.04
0.02 0.02 0.02 0.01 0.01 0.01 0.02 0.01 0.01 0.01 0.02 0.03 0.04 0.03 0.04 0.03 0.02 0.02 0.02 0.02 0.02 0.02 0.02 0.02 0.01 0.01 0.01 0.02 0.03 0.03 0.02 0.02 0.02 0.02 0.01 0.01 0.02 0.04 0.03 0.03 0.03 0.03 0.03
0.03 0.03 0.03 0.02 0.01 0.01 0.01 0.01 0.01 0.01 0.02 0.02 0.04 0.05 0.05 0.04 0.03 0.03 0.02 0.02 0.02 0.02 0.01 0.01 0.01 0.01 0.01 0.02 0.02 0.03 0.02 0.02 0.01 0.01 0.01 0.01 0.01 0.02 0.02 0.04 0.04 0.03 0.02
0.05 0.04 0.03 0.02 0.02 0.02 0.03 0.02 0.02 0.01 0.02 0.02 0.03 0.03 0.05 0.07 0.07 0.06 0.04 0.03 0.03 0.03 0.02 0.02 0.01 0.02 0.02 0.02 0.02 0.03 0.03 0.02 0.01 0.00 0.01 0.01 0.01 0.02 0.02 0.03 0.03 0.03 0.02
0.02 0.02 0.01 0.01 0.02 0.05 0.09 0.09 0.05 0.04 0.03 0.03 0.03 0.03 0.04 0.04 0.05 0.07 0.07 0.05 0.04 0.04 0.03 0.02 0.01 0.02 0.01 0.02 0.03 0.04 0.04 0.03 0.02 0.01 0.01 0.01 0.01 0.02 0.02 0.01 0.01 0.02 0.02
0.01 0.01 0.01 0.02 0.02 0.04 0.08 0.15 0.16 0.10 0.05 0.04 0.05 0.05 0.04 0.04 0.04 0.06 0.06 0.06 0.07 0.06 0.04 0.03 0.02 0.02 0.01 0.02 0.04 0.04 0.04 0.03 0.02 0.02 0.02 0.02 0.02 0.02 0.02 0.01 0.01 0.01 0.01
0.03 0.03 0.03 0.04 0.04 0.04 0.04 0.06 0.12 0.14 0.11 0.08 0.06 0.05 0.05 0.05 0.04 0.04 0.04 0.05 0.06 0.06 0.05 0.04 0.03 0.03 0.04 0.03 0.04 0.04 0.05 0.06 0.06 0.05 0.04 0.04 0.04 0.03 0.03 0.02 0.01 0.01 0.02
0.05 0.05 0.05 0.05 0.04 0.04 0.03 0.03 0.04 0.08 0.10 0.10 0.10 0.08 0.06 0.05 0.04 0.04 0.04 0.04 0.04 0.05 0.04 0.04 0.04 0.04 0.05 0.05 0.04 0.04 0.04 0.07 0.08 0.07 0.05 0.04 0.04 0.03 0.02 0.02 0.01 0.01 0.01
0.06 0.06 0.07 0.07 0.06 0.04 0.03 0.03 0.03 0.04 0.06 0.08 0.09 0.10 0.08 0.06 0.05 0.04 0.04 0.04 0.04 0.05 0.05 0.04 0.04 0.04 0.04 0.04 0.04 0.03 0.02 0.03 0.06 0.07 0.06 0.05 0.04 0.03 0.02 0.02 0.02 0.01 0.01
0.05 0.05 0.05 0.05 0.05 0.05 0.05 0.05 0.06 0.05 0.08 0.10 0.10 0.09 0.08 0.07 0.07 0.06 0.05 0.04 0.05 0.05 0.06 0.06 0.07 0.07 0.04 0.03 0.03 0.03 0.02 0.02 0.04 0.05 0.05 0.04 0.03 0.02 0.02 0.02 0.02 0.02 0.02
0.06 0.05 0.05 0.05 0.05 0.05 0.06 0.06 0.06 0.06 0.09 0.10 0.11 0.11 0.10 0.09 0.07 0.07 0.07 0.06 0.06 0.06 0.06 0.06 0.06 0.05 0.04 0.04 0.04 0.04 0.04 0.04 0.03 0.03 0.03 0.03 0.03 0.03 0.02 0.02 0.02 0.02 0.02
MSLP
1012.97 1013.05 1013.12 1013.17 1013.20 1013.23 1013.29 1013.38 1013.54 1013.75 1013.99 1014.24 1014.47 1014.63 1014.72 1014.74 1014.70 1014.64 1014.60 1014.60 1014.67 1014.81 1015.02 1015.27 1015.52 1015.75 1015.95 1016.10 1016.20 1016.28 1016.34 1016.39 1016.44 1016.49 1016.51 1016.49 1016.43 1016.31 1016.14 1015.95 1015.75 1015.57 1015.45
1012.69 1012.79 1012.90 1013.01 1013.11 1013.21 1013.32 1013.47 1013.68 1013.93 1014.21 1014.49 1014.73 1014.89 1014.96 1014.94 1014.84 1014.71 1014.59 1014.51 1014.51 1014.60 1014.76 1014.99 1015.24 1015.48 1015.69 1015.86 1016.00 1016.10 1016.18 1016.25 1016.33 1016.39 1016.43 1016.44 1016.39 1016.28 1016.11 1015.90 1015.68 1015.45 1015.26
1012.28 1012.38 1012.54 1012.72 1012.91 1013.10 1013.31 1013.56 1013.84 1014.17 1014.50 1014.81 1015.07 1015.23 1015.27 1015.20 1015.04 1014.83 1014.62 1014.45 1014.37 1014.38 1014.49 1014.67 1014.89 1015.12 1015.34 1015.51 1015.66 1015.78 1015.88 1015.98 1016.07 1016.17 1016.25 1016.29 1016.28 1016.21 1016.07 1015.86 1015.62 1015.36 1015.11
1011.88 1011.96 1012.15 1012.39 1012.67 1012.96 1013.27 1013.61 1013.99 1014.38 1014.77 1015.13 1015.40 1015.56 1015.58 1015.47 1015.25 1014.98 1014.69 1014.44 1014.27 1014.21 1014.25 1014.37 1014.55 1014.74 1014.93 1015.10 1015.24 1015.36 1015.47 1015.58 1015.70 1015.83 1015.95 1016.04 1016.08 1016.06 1015.95 1015.77 1015.53 1015.24 1014.93
1011.65 1011.68 1011.86 1012.13 1012.47 1012.83 1013.22 1013.64 1014.08 1014.53 1014.97 1015.34 1015.63 1015.79 1015.80 1015.67 1015.42 1015.10 1014.76 1014.45 1014.22 1014.09 1014.07 1014.13 1014.26 1014.40 1014.55 1014.69 1014.80 1014.90 1015.00 1015.11 1015.24 1015.39 1015.54 1015.68 1015.77 1015.79 1015.73 1015.58 1015.34 1015.03 1014.68
1011.72 1011.68 1011.81 1012.07 1012.41 1012.79 1013.21 1013.65 1014.12 1014.58 1015.03 1015.41 1015.70 1015.85 1015.87 1015.73 1015.48 1015.15 1014.80 1014.47 1014.21 1014.05 1013.97 1013.99 1014.05 1014.15 1014.24 1014.33 1014.39 1014.46 1014.52 1014.61 1014.73 1014.88 1015.05 1015.21 1015.33 1015.39 1015.37 1015.24 1015.02 1014.71 1014.32
1012.17 1012.03 1012.09 1012.28 1012.56 1012.90 1013.28 1013.68 1014.11 1014.54 1014.95 1015.31 1015.58 1015.73 1015.75 1015.64 1015.41 1015.11 1014.78 1014.48 1014.23 1014.05 1013.96 1013.93 1013.95 1013.99 1014.03 1014.05 1014.06 1014.07 1014.09 1014.13 1014.22 1014.35 1014.50 1014.66 1014.79 1014.87 1014.87 1014.77 1014.56 1014.25 1013.85
1012.99 1012.75 1012.70 1012.79 1012.96 1013.19 1013.46 1013.76 1014.09 1014.43 1014.77 1015.06 1015.30 1015.43 1015.46 1015.38 1015.20 1014.96 1014.69 1014.44 1014.22 1014.07 1013.98 1013.94 1013.93 1013.92 1013.90 1013.86 1013.81 1013.75 1013.71 1013.70 1013.74 1013.82 1013.93 1014.06 1014.18 1014.26 1014.26 1014.18 1013.98 1013.69 1013.30
1014.10 1013.77 1013.60 1013.56 1013.59 1013.67 1013.78 1013.93 1014.12 1014.32 1014.54 1014.75 1014.92 1015.03 1015.06 1015.01 1014.88 1014.71 1014.52 1014.33 1014.18 1014.07 1014.00 1013.95 1013.92 1013.88 1013.82 1013.73 1013.62 1013.51 1013.41 1013.33 1013.31 1013.33 1013.39 1013.47 1013.55 1013.60 1013.60 1013.51 1013.34 1013.07 1012.71
1015.34 1014.95 1014.69 1014.51 1014.38 1014.29 1014.23 1014.20 1014.22 1014.27 1014.35 1014.45 1014.53 1014.59 1014.61 1014.57 1014.49 1014.39 1014.26 1014.15 1014.06 1013.99 1013.95 1013.92 1013.89 1013.83 1013.74 1013.61 1013.46 1013.30 1013.15 1013.02 1012.94 1012.89 1012.89 1012.91 1012.94 1012.96 1012.93 1012.84 1012.68 1012.44 1012.13
1016.58 1016.17 1015.83 1015.53 1015.26 1015.01 1014.78 1014.58 1014.43 1014.32 1014.26 1014.23 1014.22 1014.21 1014.19 1014.15 1014.09 1014.02 1013.94 1013.88 1013.84 1013.82 1013.81 1013.79 1013.76 1013.70 1013.59 1013.46 1013.29 1013.11 1012.92 1012.76 1012.63 1012.53 1012.46 1012.42 1012.39 1012.36 1012.30 1012.20 1012.05 1011.85 1011.59
1017.69 1017.27 1016.89 1016.51 1016.13 1015.75 1015.38 1015.04 1014.74 1014.49 1014.29 1014.14 1014.03 1013.93 1013.85 1013.77 1013.70 1013.63 1013.58 1013.55 1013.53 1013.53 1013.54 1013.54 1013.51 1013.46 1013.36 1013.23 1013.07 1012.88 1012.69 1012.52 1012.36 1012.22 1012.10 1012.01 1011.92 1011.83 1011.74 1011.62 1011.48 1011.31 1011.10
1018.57 1018.18 1017.77 1017.35 1016.89 1016.43 1015.96 1015.51 1015.11 1014.75 1014.44 1014.18 1013.96 1013.77 1013.61 1013.47 1013.35 1013.25 1013.19 1013.15 1013.14 1013.15 1013.16 1013.17 1013.15 1013.11 1013.03 1012.92 1012.77 1012.61 1012.44 1012.27 1012.10 1011.94 1011.79 1011.65 1011.51 1011.38 1011.24 1011.10 1010.95 1010.80 1010.64
1019.21 1018.84 1018.43 1017.97 1017.48 1016.97 1016.45 1015.95 1015.47 1015.04 1014.64 1014.29 1013.97 1013.69 1013.43 1013.21 1013.03 1012.88 1012.78 1012.72 1012.69 1012.69 1012.70 1012.70 1012.70 1012.66 1012.60 1012.52 1012.41 1012.28 1012.13 1011.98 1011.83 1011.67 1011.50 1011.33 1011.15 1010.97 1010.79 1010.62 1010.46 1010.31 1010.16
1019.59 1019.24 1018.82 1018.36 1017.85 1017.33 1016.79 1016.26 1015.75 1015.27 1014.82 1014.39 1013.99 1013.62 1013.28 1012.98 1012.72 1012.52 1012.37 1012.27 1012.21 1012.19 1012.19 1012.19 1012.18 1012.16 1012.11 1012.05 1011.96 1011.87 1011.76 1011.65 1011.52 1011.37 1011.20 1011.01 1010.81 1010.59 1010.37 1010.16 1009.97 1009.80 1009.65
1019.75 1019.38 1018.95 1018.48 1017.97 1017.45 1016.92 1016.39 1015.87 1015.37 1014.88 1014.40 1013.94 1013.50 1013.09 1012.72 1012.40 1012.14 1011.95 1011.82 1011.74 1011.69 1011.67 1011.66 1011.64 1011.61 1011.57 1011.52 1011.46 1011.39 1011.32 1011.23 1011.14 1011.01 1010.86 1010.67 1010.45 1010.20 1009.95 1009.70 1009.47 1009.27 1009.09
1019.70 1019.29 1018.83 1018.34 1017.83 1017.31 1016.79 1016.28 1015.77 1015.26 1014.75 1014.24 1013.74 1013.26 1012.80 1012.38 1012.03 1011.74 1011.53 1011.37 1011.27 1011.21 1011.17 1011.14 1011.10 1011.05 1011.00 1010.94 1010.88 1010.83 1010.78 1010.73 1010.67 1010.58 1010.46 1010.29 1010.07 1009.81 1009.53 1009.25 1008.97 1008.72 1008.50
1019.44 1018.97 1018.47 1017.95 1017.42 1016.90 1016.39 1015.90 1015.40 1014.90 1014.39 1013.87 1013.35 1012.85 1012.38 1011.95 1011.59 1011.31 1011.09 1010.94 1010.83 1010.76 1010.70 1010.63 1010.56 1010.48 1010.39 1010.30 1010.24 1010.19 1010.16 1010.14 1010.12 1010.07 1009.99 1009.86 1009.67 1009.42 1009.13 1008.81 1008.50 1008.19 1007.91
1019.01 1018.46 1017.89 1017.33 1016.78 1016.26 1015.75 1015.26 1014.77 1014.28 1013.78 1013.27 1012.77 1012.28 1011.82 1011.42 1011.09 1010.83 1010.63 1010.49 1010.39 1010.31 1010.23 1010.12 1010.00 1009.87 1009.73 1009.61 1009.52 1009.46 1009.45 1009.46 1009.49 1009.50 1009.48 1009.40 1009.26 1009.04 1008.75 1008.42 1008.07 1007.71 1007.36
1018.39 1017.76 1017.13 1016.52 1015.94 1015.40 1014.89 1014.40 1013.93 1013.45 1012.97 1012.49 1012.01 1011.56 1011.15 1010.80 1010.51 1010.30 1010.14 1010.02 1009.93 1009.84 1009.72 1009.57 1009.40 1009.21 1009.02 1008.85 1008.73 1008.66 1008.66 1008.72 1008.80 1008.88 1008.94 1008.93 1008.85 1008.67 1008.41 1008.08 1007.70 1007.29 1006.89
1017.61 1016.90 1016.21 1015.56 1014.95 1014.39 1013.87 1013.39 1012.92 1012.46 1012.00 1011.55 1011.13 1010.73 1010.38 1010.09 1009.87 1009.70 1009.59 1009.50 1009.41 1009.30 1009.15 1008.95 1008.72 1008.47 1008.23 1008.02 1007.88 1007.82 1007.84 1007.94 1008.09 1008.26 1008.40 1008.47 1008.46 1008.34 1008.11 1007.78 1007.38 1006.93 1006.47
1016.69 1015.92 1015.18 1014.48 1013.85 1013.27 1012.74 1012.26 1011.80 1011.35 1010.93 1010.52 1010.14 1009.81 1009.52 1009.30 1009.14 1009.03 1008.95 1008.87 1008.78 1008.65 1008.47 1008.22 1007.94 1007.64 1007.36 1007.14 1006.99 1006.95 1007.02 1007.18 1007.41 1007.65 1007.87 1008.03 1008.09 1008.02 1007.81 1007.49 1007.08 1006.60 1006.09
1015.66 1014.84 1014.06 1013.34 1012.68 1012.08 1011.54 1011.05 1010.60 1010.18 1009.78 1009.41 1009.09 1008.81 1008.59 1008.43 1008.32 1008.25 1008.19 1008.13 1008.03 1007.87 1007.65 1007.37 1007.06 1006.74 1006.45 1006.23 1006.11 1006.11 1006.23 1006.46 1006.76 1007.09 1007.39 1007.61 1007.72 1007.68 1007.50 1007.18 1006.74 1006.23 1005.68
1014.56 1013.70 1012.89 1012.14 1011.46 1010.85 1010.30 1009.80 1009.35 1008.94 1008.57 1008.24 1007.96 1007.73 1007.56 1007.45 1007.38 1007.34 1007.30 1007.23 1007.12 1006.94 1006.70 1006.41 1006.09 1005.77 1005.50 1005.32 1005.25 1005.32 1005.51 1005.82 1006.19 1006.58 1006.93 1007.19 1007.33 1007.30 1007.11 1006.78 1006.32 1005.78 1005.20
1013.42 1012.53 1011.69 1010.92 1010.22 1009.59 1009.02 1008.52 1008.06 1007.66 1007.30 1007.00 1006.75 1006.57 1006.44 1006.36 1006.31 1006.29 1006.25 1006.18 1006.06 1005.88 1005.64 1005.35 1005.05 1004.78 1004.56 1004.45 1004.46 1004.60 1004.88 1005.25 1005.68 1006.11 1006.49 1006.76 1006.88 1006.84 1006.62 1006.25 1005.76 1005.19 1004.60
1012.26 1011.34 1010.48 1009.69 1008.96 1008.31 1007.72 1007.19 1006.72 1006.32 1005.97 1005.68 1005.46 1005.30 1005.20 1005.14 1005.12 1005.10 1005.06 1004.99 1004.88 1004.70 1004.48 1004.24 1003.99 1003.79 1003.66 1003.64 1003.74 1003.97 1004.32 1004.75 1005.22 1005.66 1006.03 1006.27 1006.36 1006.27 1006.00 1005.58 1005.05 1004.46 1003.86
Thickness
5806 5805 5804 5802 5798 5795 5793 5791 5788 5787 5785 5782 5780 5777 5776 5777 5777 5777 5777 5776 5775 5774 5772 5770 5768 5766 5764 5762 5760 5758 5755 5752 5752 5749 5746 5746 5747 5746 5746 5745 5744 5743 5742
5802 5802 5801 5800 5797 5794 5792 5791 5789 5787 5786 5784 5781 5779 5778 5777 5777 5776 5776 5775 5775 5773 5772 5770 5768 5766 5763 5761 5759 5757 5753 5752 5751 5746 5741 5737 5739 5742 5744 5743 5742 5741 5740
5801 5800 5800 5799 5797 5794 5793 5793 5790 5788 5786 5784 5782 5779 5777 5776 5775 5774 5774 5774 5774 5773 5771 5770 5767 5765 5763 5760 5758 5756 5753 5750 5749 5747 5742 5735 5731 5734 5738 5739 5739 5739 5738
5804 5802 5801 5799 5798 5797 5796 5793 5791 5788 5786 5785 5781 5778 5774 5771 5772 5773 5773 5773 5773 5772 5771 5769 5767 5765 5763 5760 5759 5757 5754 5751 5747 5746 5745 5742 5739 5733 5731 5735 5736 5737 5737
5807 5805 5803 5802 5800 5798 5795 5793 5790 5788 5786 5785 5782 5778 5775 5774 5773 5773 5772 5771 5771 5771 5770 5769 5766 5764 5762 5761 5759 5757 5755 5752 5749 5746 5743 5740 5738 5735 5730 5728 5731 5733 5735
5808 5806 5805 5803 5800 5798 5795 5792 5789 5787 5786 5784 5781 5778 5775 5773 5771 5770 5768 5768 5768 5769 5769 5768 5766 5764 5762 5761 5759 5758 5755 5753 5750 5747 5744 5741 5737 5734 5731 5728 5727 5728 5732
5806 5803 5801 5799 5797 5796 5794 5792 5788 5785 5784 5783 5780 5778 5776 5773 5771 5769 5768 5766 5766 5766 5767 5767 5765 5764 5763 5761 5759 5757 5755 5753 5750 5748 5745 5743 5741 5738 5734 5730 5727 5726 5729
5804 5802 5801 5799 5796 5794 5792 5789 5786 5784 5783 5781 5779 5777 5776 5773 5771 5770 5768 5767 5766 5767 5767 5766 5765 5763 5762 5761 5759 5756 5754 5752 5750 5748 5746 5743 5742 5740 5737 5733 5728 5725 5726
5802 5800 5799 5797 5795 5793 5791 5789 5786 5783 5781 5780 5778 5776 5775 5773 5771 5770 5768 5767 5767 5766 5766 5764 5763 5762 5761 5759 5757 5755 5753 5751 5749 5747 5745 5743 5741 5740 5738 5735 5732 5727 5722
5799 5798 5796 5795 5794 5792 5790 5788 5786 5783 5781 5779 5776 5776 5774 5772 5771 5769 5767 5766 5765 5765 5764 5763 5762 5760 5759 5757 5755 5753 5751 5749 5747 5746 5743 5742 5740 5739 5737 5736 5733 5730 5725
5796 5794 5793 5793 5791 5789 5787 5785 5783 5780 5779 5777 5775 5773 5772 5771 5769 5767 5766 5765 5764 5763 5762 5761 5759 5757 5756 5755 5752 5751 5749 5746 5744 5743 5741 5740 5739 5738 5736 5734 5732 5729 5726
5793 5792 5790 5789 5787 5785 5784 5782 5780 5777 5776 5774 5772 5770 5769 5767 5765 5764 5764 5763 5762 5761 5760 5758 5756 5755 5754 5752 5750 5748 5746 5744 5741 5740 5739 5738 5737 5735 5734 5732 5730 5727 5725
5788 5787 5785 5784 5782 5781 5780 5778 5777 5775 5774 5772 5769 5766 5765 5764 5762 5761 5761 5760 5758 5757 5756 5755 5753 5751 5750 5749 5747 5745 5743 5741 5740 5738 5736 5735 5734 5732 5731 5729 5727 5725 5724
5783 5781 5780 5779 5779 5777 5776 5775 5773 5772 5770 5768 5765 5763 5761 5761 5759 5758 5757 5756 5755 5753 5752 5751 5750 5748 5747 5746 5744 5742 5740 5738 5736 5735 5734 5733 5731 5730 5728 5727 5724 5722 5719
5776 5776 5775 5774 5774 5772 5771 5770 5769 5768 5767 5763 5760 5759 5758 5757 5755 5754 5753 5751 5750 5749 5748 5746 5745 5744 5743 5742 5740 5738 5736 5734 5732 5731 5730 5730 5729 5728 5726 5724 5721 5718 5715
5771 5771 5771 5770 5769 5768 5767 5765 5764 5763 5762 5759 5757 5755 5754 5752 5751 5749 5748 5746 5745 5744 5742 5741 5739 5738 5738 5736 5734 5733 5731 5729 5728 5726 5725 5725 5724 5723 5722 5720 5718 5716 5712
5768 5767 5766 5766 5765 5765 5764 5761 5760 5758 5756 5754 5752 5751 5749 5747 5746 5745 5742 5741 5739 5738 5736 5735 5733 5732 5731 5730 5728 5727 5725 5724 5723 5721 5720 5720 5720 5718 5716 5714 5713 5711 5709
5764 5763 5763 5762 5762 5761 5759 5758 5755 5752 5750 5748 5747 5746 5744 5742 5740 5738 5736 5735 5733 5731 5730 5729 5728 5726 5726 5724 5722 5720 5719 5719 5718 5717 5715 5714 5713 5712 5710 5708 5706 5704 5703
5761 5761 5761 5759 5757 5756 5754 5752 5750 5747 5745 5743 5742 5741 5739 5736 5734 5732 5730 5729 5726 5725 5724 5723 5721 5720 5719 5717 5715 5713 5713 5712 5712 5711 5710 5708 5707 5706 5703 5701 5699 5697 5697
5757 5756 5756 5754 5751 5750 5749 5746 5743 5742 5740 5740 5738 5737 5734 5731 5729 5727 5725 5723 5721 5719 5717 5716 5715 5714 5713 5711 5709 5707 5707 5705 5705 5704 5703 5702 5701 5699 5697 5695 5693 5691 5690
5750 5750 5749 5747 5747 5746 5744 5740 5738 5737 5738 5737 5735 5732 5729 5727 5725 5722 5720 5717 5715 5712 5710 5708 5707 5706 5705 5704 5702 5701 5700 5699 5698 5697 5697 5697 5695 5692 5690 5689 5688 5687 5685
5742 5741 5740 5740 5740 5740 5738 5735 5733 5735 5733 5730 5728 5726 5724 5721 5719 5716 5713 5710 5708 5705 5702 5700 5699 5699 5698 5697 5696 5694 5694 5693 5692 5691 5691 5691 5689 5686 5684 5682 5682 5680 5678
5732 5733 5731 5730 5731 5731 5730 5727 5728 5728 5725 5722 5718 5716 5715 5713 5711 5708 5706 5703 5700 5697 5695 5693 5692 5692 5691 5690 5689 5688 5687 5686 5686 5686 5685 5684 5682 5680 5678 5677 5675 5673 5671
5722 5723 5722 5721 5721 5722 5722 5721 5721 5720 5717 5714 5710 5708 5707 5705 5703 5701 5699 5697 5694 5692 5689 5686 5685 5685 5685 5684 5684 5682 5681 5680 5679 5678 5677 5676 5674 5673 5672 5670 5668 5666 5665
5714 5715 5715 5715 5715 5715 5714 5714 5712 5710 5708 5705 5702 5701 5700 5698 5696 5693 5692 5691 5690 5688 5685 5684 5682 5680 5679 5681 5679 5678 5676 5675 5673 5671 5669 5668 5667 5666 5665 5664 5662 5660 5658
5705 5705 5706 5707 5707 5707 5706 5705 5704 5702 5700 5697 5695 5694 5692 5690 5689 5686 5684 5684 5683 5682 5680 5680 5678 5678 5677 5676 5673 5671 5671 5669 5666 5664 5663 5663 5662 5661 5660 5659 5657 5655 5654